Location: Newark
(44.9861°N, 0.2536°E)
Time: 18:27:18
(UTC+00:00)

HuskySat-1 - Pass Details

Date: 16 July 2020
Orbit: 457 x 471 km, 51.6° (Epoch: 11 August)

Event Time Altitude Azimuth Distance (km) Brightness Sun altitude
Exits shadow 00:11:51 14° 283° (WNW) 1,403 ? -23.7°
Maximum altitude 00:14:37 34° 346° (NNW) 780 ? -23.7°
Drops below altitude 10° 00:17:59 10° 53° (NE) 1,613 ? -23.6°
Sets 00:20:15 0° 63° (ENE) 2,486 ? -23.6°
